Tracking 20093 objects as of 16-Dec-2019
HD Live streaming from Space Station
objects crossing your sky now

COSMOS 2251 DEB

Track COSMOS 2251 DEB now!
10-day predictions


NORAD ID: 35442
Int'l Code: 1993-036AKL
Perigee: 739.0 km
Apogee: 758.7 km
Inclination: 74.0 °
Period: 99.6 minutes
Semi major axis: 7119 km
RCS: 0.0032 m2 (small)
Launch date: June 16, 1993
Source: Commonwealth of Independent States (former USSR) (CIS)
Launch site: PLESETSK MISSILE AND SPACE COMPLEX (PKMTR)

Note: This is SATELLITE DEBRIS
aabbcc
Your satellite tracking list
Your tracking list is empty




NASA's NSSDC Master Catalog

Two Line Element Set (TLE):
1 35442U 93036AKL 19349.49714912 +.00000444 +00000-0 +13444-3 0  9993
2 35442 074.0418 279.3895 0013826 151.1007 209.0919 14.45107427555248
Source of the keplerian elements: AFSPC